FENGYUN 1C DEB, 29979

Orbit data source: Space-Track

FENGYUN 1C DEB, 29979 is space debris in SSO originally from a launch on Mon, 10 May 1999 UTC launched from the Taiyaun Space Center, China (TSC). Fengyun 1C debris stems from the Chinese weather satellite Fengyun-1C, which was intentionally destroyed by a Chinese anti-satellite missile in 2007. This event dramatically increased the amount of space debris, with thousands of trackable fragments posing hazards to satellites and human spaceflight. The Fengyun 1C debris cloud has become a focal point in discussions about space sustainability and the need for international regulations to prevent the creation of new debris.

Loading next visibility...
Identifier
29979, 1999-025LD
Orbit
SSO
Country
Flag of CNCN / PRC
Related business
Manufacturer
Unknown
Mission
Spacecraft
Bus & Motor
Unknown
Mass
Unknown
Launch date (UTC)
1999-05-10 (27 years ago)
Launch vehicle
Unknown
Launch site
Taiyaun Space Center, China (TSC)
Object type
Payload
Rocket body
Debris
Shape & HBR
Unknown shape, 0.1 m
Radar Cross Section
Medium (>0.1 m² and <1 m²)

Expand to show TLE details & history
Last TLE update: 8 hours ago

TLE from 8 hours ago
0 FENGYUN 1C DEB
1 29979U 99025LD  26170.57243973  .00000614  00000-0  25731-3 0  9999
2 29979  98.3540 190.3124 0105694 328.8864 144.1983 14.26377975  7650
Epoch: 2026-06-19T13:44Z
TLE epoch observation values (Epoch: 2026-06-19T13:44:18.792Z)
Latitude
64.9586°
Longitude
-85.34512°
Altitude
876.898 km
Speed
7.388 km/s
True Right ascension
01h 54m 07s
True Declination
64° 49' 43"
Sunlit
Object was in daylight at epoch
Visualization orbit readout
Latitude
Unknown
Longitude
Unknown
Altitude
Unknown
Speed
Unknown
Apparent Right ascension
Unknown
Apparent Declination
Unknown
Sunlit
N/A
Visualization observer readout
Local Sidereal Time
08:44:31
Azimuth
Unknown
Elevation
Unknown
Doppler factor
Unknown
Orbital elements
Apogee altitude
876.875 km
Perigee altitude
725.117 km
Semi-major axis
7,179.133 km
Eccentricity
0.01057
Inclination
98.354°
RAAN
190.3124°
Arg. of periapsis
328.8864°
True anomaly
144.89928°
Mean anomaly
144.1983°
Eccentric anomaly
144.54954°
Mean motion
3.56808 °/min
Orbital period
100.89 mins
BSTAR
0.00025731
Loading maneuver chart data...
Computing Atmospheric mass density...

Documentation

Showing up to 5 results
|